Location: Gabarret
(43.9878°N, 0.0098°E)
Time: 12:16:10
(UTC+00:00)

Daily predictions for brighter satellites

Satellite Brightness Start Highest point End
(mag) Time Altitude Azimuth Time Altitude Azimuth Time Altitude Azimuth
Meteor 1-22 Rocket 4.3 18:57:24 10° S 19:02:52 60° E 19:08:36 10° NNE
Cosmos 1898 Rocket 4.0 18:58:37 10° S 19:03:26 38° ESE 19:08:15 10° NE
CZ-4 R/B 2.6 19:01:42 10° ESE 19:04:40 22° ENE 19:07:36 10° NNE
PSLV R/B 3.7 19:01:21 10° S 19:05:22 74° WSW 19:09:28 10° NNW
Meteor 2-13 Rocket 4.5 18:59:47 10° N 19:05:59 82° E 19:12:09 10° S
Resurs 01 Rocket 2.0 19:02:03 10° S 19:06:25 69° W 19:10:47 10° NNW
Cosmos 2333 4.2 19:07:18 10° S 19:12:46 60° ESE 19:18:16 10° NNE
Cosmos 372 Rocket 4.0 19:09:04 10° S 19:14:12 65° ESE 19:19:24 10° NNE
Tiangong -0.4 19:11:48 10° WSW 19:14:23 24° SSW 19:16:59 10° SE
Meteor 1-24 Rocket 3.8 19:09:41 10° N 19:15:04 57° ENE 19:20:36 10° SSE
Cosmos 1538 Rocket 4.1 19:10:05 10° NNW 19:15:11 58° ENE 19:20:15 10° SE
CENTAUR R/B 3.9 19:08:49 10° NW 19:17:14 63° WSW 19:26:34 10° SSE
Cosmos 1844 4.2 19:11:37 10° NNW 19:17:22 67° WSW 19:23:05 10° SSE
Cosmos 2219 Rocket 2.3 19:13:18 10° S 19:18:39 50° ESE 19:24:01 10° NE
SPOT 5 3.0 19:15:14 10° SSE 19:19:54 53° ENE 19:24:21 10° N
Cosmos 2074 Rocket 4.0 19:16:00 10° S 19:22:06 65° E 19:28:18 10° NNE
CZ-4B R/B 4.1 19:18:56 10° SE 19:22:16 40° ENE 19:25:44 10° N
Meteor 1-31 Rocket 3.0 19:21:36 10° SE 19:24:54 40° ENE 19:28:14 10° N
Cosmos 1937 Rocket 3.8 19:19:58 10° S 19:24:57 44° ESE 19:29:57 10° NNE
COSMOS 2428 3.8 19:31:51 10° SSE 19:36:11 23° E 19:40:34 10° NE
USA 234 3.6 19:30:07 10° NE 19:36:39 73° NW 19:43:10 10° WSW
IRAS Rocket 4.2 19:32:43 10° SSE 19:38:14 77° ENE 19:43:43 10° NNW
Cosmos 1953 2.4 19:35:03 10° SSW 19:38:36 66° W 19:42:11 10° N
Meteor 1-15 Rocket 4.2 19:33:09 10° S 19:38:42 84° E 19:44:18 10° NNE
CZ-4B R/B 3.8 19:35:07 12° SE 19:39:51 39° ENE 19:45:01 10° N
CZ-4B DEB 4.4 19:35:06 10° SE 19:40:23 54° ENE 19:45:43 10° N
CSL-04 Rocket 3.7 19:35:09 10° SSE 19:40:38 80° ENE 19:46:14 10° NNW
Cosmos 2278 Rocket 3.9 19:40:46 10° N 19:44:37 18° NE 19:47:49 12° E
Cosmos 2333 Rocket 3.7 19:42:04 10° SW 19:47:23 40° WNW 19:52:43 10° NNE
NOSS 3-2 (C) 4.3 19:42:32 10° NNW 19:49:42 57° NE 19:56:23 18° ESE
Iridium 82 4.2 19:47:37 10° N 19:50:39 74° W 19:53:35 10° S
Cosmos 1703 Rocket 3.5 19:50:56 10° N 19:55:14 62° E 19:58:41 15° SSE
BREEZE-M DEB (TANK) 3.3 19:53:33 10° WNW 19:55:50 32° N 19:59:33 10° ENE
Cosmos 1470 Rocket 3.7 19:51:39 10° SSW 19:56:03 77° W 20:00:25 10° N
Geosat 3.9 19:51:27 10° NNE 19:56:29 76° ESE 20:01:27 10° SSW
Lacrosse 5 rocket 0.5 19:54:20 10° SW 19:57:31 66° SE 20:00:41 10° NE
NOSS 3-2 (A) 4.3 19:50:40 10° NW 19:58:10 74° WSW 20:06:45 11° SSE
ARIANE 6 FM1 Upper Stage 3.6 19:54:47 10° WSW 19:58:49 50° NW 20:02:47 10° NNE
Meteor 2-5 Rocket 4.0 19:54:40 10° NNW 20:00:10 68° W 20:05:40 10° S
ERS-1 Rocket 3.0 19:57:46 16° SSE 20:01:46 63° ENE 20:06:43 10° N
Cosmos 1933 Rocket 3.6 19:59:15 10° S 20:03:30 55° E 20:07:48 10° NNE
Nadezhda 3 Rocket 4.1 19:59:24 10° N 20:05:35 80° W 20:11:43 10° S
Cosmos 2218 Rocket 4.5 20:06:05 19° SE 20:09:52 38° E 20:15:27 10° NNE
Cosmos 1943 Rocket 3.2 20:05:38 10° N 20:10:37 31° NE 20:12:59 23° E
Helios 1A Rocket 3.2 20:09:34 10° N 20:12:43 49° WNW 20:15:50 10° SSW
Meteor 1-12 Rocket 4.3 20:06:52 10° S 20:12:49 80° E 20:18:51 10° NNE
In-Cosmos 22 Rocket 4.2 20:11:15 10° N 20:16:29 54° ENE 20:19:02 29° SE
OPS 6432 4.2 20:16:02 10° NW 20:19:25 81° NE 20:20:04 54° SE
Okean-O 3.1 20:20:35 35° ESE 20:21:37 40° ENE 20:25:44 10° N
Cosmos 494 Rocket 4.1 20:19:22 10° NNW 20:24:29 59° ENE 20:26:29 35° SE
Cosmos 962 Rocket 4.4 20:19:04 10° S 20:25:19 77° E 20:31:32 10° N
Cosmos 2360 Rocket 4.0 20:21:17 10° WSW 20:26:18 32° NW 20:31:21 10° N
CBERS 1 LM4 rocket 4.4 20:24:04 20° S 20:27:21 74° WSW 20:32:04 10° NNW
Cosmos 1869 Rocket 3.4 20:30:47 23° S 20:33:27 83° E 20:37:52 10° N
Cosmos 2322 Rocket 4.4 20:29:45 10° WSW 20:34:25 26° NW 20:39:08 10° N
ADEOS 3.6 20:32:48 23° S 20:36:04 76° WSW 20:41:18 10° NNW
Terra 2.0 20:34:16 25° S 20:37:01 69° WSW 20:41:42 10° NNW
CZ-4 R/B 3.1 20:35:14 10° SSW 20:38:32 28° W 20:41:50 10° NW
BREEZE-M DEB (TANK) 4.2 20:38:20 10° WSW 20:42:11 86° NNW 20:57:54 10° ENE
Okean O Rocket 1.5 20:43:57 58° SE 20:44:43 76° ENE 20:49:05 10° N
Cosmos 2237 Rocket 3.1 20:47:31 31° ENE 20:47:31 31° ENE 20:51:18 10° NE
Cosmos 2242 Rocket 4.1 20:42:18 10° N 20:46:21 41° ENE 20:46:21 41° ENE
Cosmos 1980 4.3 20:47:57 36° E 20:47:57 36° E 20:52:12 10° NE
SL-08 R/B 3.6 20:44:16 10° N 20:49:09 71° WNW 20:53:56 10° SSW
Cosmos 2322 3.7 20:44:22 10° SSW 20:50:05 83° WNW 20:55:51 10° NNE
CZ-4B R/B 3.9 20:51:35 30° NNE 20:51:35 30° NNE 20:53:51 10° N
ASTEX 1 3.6 20:50:47 48° E 20:50:57 48° ENE 20:55:40 10° N
Cosmos 2341 Rocket 3.9 20:46:43 14° S 20:52:06 88° W 20:58:25 10° N
IRS-1A Rocket 4.4 20:52:14 31° S 20:54:56 69° WSW 21:00:34 10° NNW
Cosmos 864 Rocket 4.5 20:51:53 17° S 20:56:50 86° W 21:03:07 10° N
Meteor 1-21 Rocket 4.1 20:53:50 10° N 20:59:27 90° E 21:01:09 48° S
Cosmos 1680 Rocket 4.0 20:55:42 10° NNW 21:00:45 53° WSW 21:02:37 35° SSW
SPOT 3 Rocket 3.6 21:02:11 54° E 21:02:31 55° ENE 21:07:35 10° N
Cosmos 2219 Rocket 4.2 20:58:06 10° WSW 21:02:49 28° NW 21:07:35 10° N
Spot 3 4.5 21:03:36 60° SSE 21:04:38 84° ENE 21:09:59 10° NNW
Meteor 2-14 Rocket 4.4 21:01:53 10° N 21:08:00 85° W 21:09:57 46° S
Meteor 2-21 Rocket 4.5 21:08:21 10° N 21:14:22 58° ENE 21:14:50 56° E
SL-24 R/B - RUBIN 2 4.2 21:11:40 10° NW 21:15:58 48° WSW 21:16:05 48° SW
USA 245 4.0 21:17:15 53° N 21:17:15 53° N 21:20:47 10° NNW
COSMOS 2428 3.3 21:14:21 10° SW 21:19:58 56° WNW 21:25:37 10° NNE
Cosmos 2369 Rocket 4.2 21:16:55 10° N 21:20:06 15° NE 21:20:57 15° NE
NOSS 0 Rocket 3.9 21:16:37 10° SSW 21:22:51 82° WNW 21:29:08 10° NNE
Ariane Rocket 3.1 21:26:52 66° NE 21:26:52 66° NE 21:31:26 10° N
Cosmos 1727 Rocket 3.9 21:21:30 10° N 21:27:53 78° E 21:28:32 70° SE
Cosmos 2278 Rocket 2.0 21:23:44 10° NNW 21:29:27 87° WSW 21:29:39 83° S
USA 238 DEB 4.0 21:23:05 10° NW 21:30:31 69° NE 21:32:16 54° ESE
USA 238 4.0 21:23:15 10° NW 21:30:41 68° NE 21:32:26 54° ESE
Lacrosse 5 rocket 3.6 21:32:08 10° WNW 21:34:04 18° NW 21:34:04 18° NW
Cosmos 1378 Rocket 4.5 21:36:59 10° NNW 21:40:15 47° NNW 21:40:15 47° NNW
Meteor 2-8 Rocket 4.3 21:47:10 87° NNE 21:47:10 87° NNE 21:53:11 10° N
Cosmos 1656 Rocket 4.5 21:45:58 10° NNW 21:50:17 40° NNE 21:50:17 40° NNE
SL-16 R/B 4.3 21:58:05 16° NE 21:58:05 16° NE 21:59:18 10° NE
Cosmos 1943 Rocket 2.9 21:49:08 10° NW 21:54:29 45° WSW 21:54:29 45° WSW
Cosmos 614 Rocket 4.5 21:49:53 10° NNW 21:53:59 57° NNW 21:53:59 57° NNW
SeaSat 1 3.4 21:59:30 41° NNE 21:59:30 41° NNE 22:03:00 10° NNW
CZ-4B R/B 4.4 22:00:12 43° WNW 22:00:12 43° WNW 22:04:07 10° NNW
Cosmos 1934 Rocket 4.2 22:03:44 63° NE 22:03:44 63° NE 22:09:03 10° N
Cosmos 2123 Rocket 4.0 21:58:10 10° N 22:03:50 73° NNE 22:03:50 73° NNE
USA 59 Rocket 2.4 22:02:01 10° NNW 22:02:48 16° NNW 22:02:48 16° NNW
NOSS 3-4 (A) 3.7 22:10:28 55° NW 22:10:28 55° NW 22:15:58 10° NNE
NOSS 3-4 (C) 3.7 22:11:02 55° NW 22:11:02 55° NW 22:16:30 10° NNE
Okean O Rocket 4.4 22:21:11 11° W 22:21:24 11° W 22:22:21 10° WNW
Cosmos 2237 Rocket 3.4 22:29:12 35° W 22:30:11 38° NW 22:35:29 10° NNE
Cosmos 2369 Rocket 3.5 22:59:26 10° NNW 23:02:43 36° NNW 23:02:43 36° NNW
SJ 16-02 4.3 23:32:46 10° N 23:33:16 12° NNE 23:33:16 12° NNE
SL-16 R/B 3.8 23:39:53 32° NNW 23:39:53 32° NNW 23:43:31 10° NNE
ACS3 Solar Sail 4.1 23:39:29 10° ENE 23:40:25 12° ENE 23:40:25 12° ENE
CZ-2C R/B 4.3 23:44:18 30° NNE 23:44:18 30° NNE 23:47:23 10° N
